This is the latest recevied weather packets stored in our database for station/object OK2ILA-13. If no packets are shown the sender has not sent any weather packets the latest 10 day(s).
| Time | Temp. | Humidity | Pressure | Rain* | Wind** | Luminosity | Snow |
|---|---|---|---|---|---|---|---|
| 1777707863 | 17.22° C | 37% | 1025.4 hPa | - | - | - | - |
| 1777707263 | 17.22° C | 33% | 1025.5 hPa | - | - | - | - |
| 1777706664 | 16.67° C | 35% | 1025.4 hPa | - | - | - | - |
| 1777706064 | 16.67° C | 38% | 1025.4 hPa | - | - | - | - |
| 1777705463 | 16.11° C | 40% | 1025.4 hPa | - | - | - | - |
| 1777704864 | 16.11° C | 40% | 1025.4 hPa | - | - | - | - |
| 1777704264 | 15° C | 40% | 1025.4 hPa | - | - | - | - |
| 1777703665 | 14.44° C | 43% | 1025.3 hPa | - | - | - | - |
| 1777703065 | 13.89° C | 42% | 1025.4 hPa | - | - | - | - |
| 1777702465 | 13.33° C | 44% | 1025.3 hPa | - | - | - | - |
| 1777701866 | 12.22° C | 47% | 1025.4 hPa | - | - | - | - |
| 1777701265 | 11.67° C | 47% | 1025.4 hPa | - | - | - | - |
| 1777700665 | 11.67° C | 48% | 1025.3 hPa | - | - | - | - |
| 1777700066 | 11.11° C | 50% | 1025.2 hPa | - | - | - | - |
| 1777699466 | 11.11° C | 49% | 1025.3 hPa | - | - | - | - |
| 1777698866 | 11.11° C | 49% | 1025.2 hPa | - | - | - | - |
| 1777698266 | 10.56° C | 50% | 1025.1 hPa | - | - | - | - |
| 1777697667 | 10° C | 51% | 1025 hPa | - | - | - | - |
| 1777697067 | 9.44° C | 52% | 1025 hPa | - | - | - | - |
| 1777696467 | 9.44° C | 52% | 1024.9 hPa | - | - | - | - |
| 1777695867 | 9.44° C | 51% | 1025 hPa | - | - | - | - |
| 1777695268 | 9.44° C | 51% | 1025 hPa | - | - | - | - |
| 1777694668 | 9.44° C | 52% | 1024.9 hPa | - | - | - | - |
| 1777694068 | 9.44° C | 52% | 1024.9 hPa | - | - | - | - |
| 1777693468 | 8.89° C | 53% | 1024.8 hPa | - | - | - | - |
* Rain since midnight (hover to see other rain measurements)
** Current wind speed in m/s (hover to see current wind gust speed)